[[{"header":{"parameterUnit":"m.s-1","parameterCategory":1,"la1":30.2991,"la2":30.254,"lo1":-89.0895,"lo2":-89.0444,"dy":0.0017,"dx":0.0017,"nx":28,"ny":28,"refTime":"2024-07-20T09:00:00:Z","depth":0,"parameterNumber":2,"parameterNumberName":"U-component_of_WINDS"},"data":[0,0,0,0,0,0,0,0,0,0,0,0,0,0,0,0,0,0,0,0,0,0,0,0,0,0,0,0,0,0,0,0,0,0,0,0,0,0,0,0,0,0,0,0,0,0,0,0,0,0,0,0,0,0,0,0,0,0,2.4134,2.4134,0,2.4129,2.4129,2.4128,2.4093,2.4092,2.4091,2.4091,2.4086,2.4086,2.4087,0,0,0,0,0,0,0,0,0,0,0,0,0,2.4114,2.4115,2.4134,2.4134,2.4134,2.4129,2.4129,2.4128,2.4093,2.4092,2.4091,2.409,2.4085,2.4086,2.4087,0,0,0,0,0,0,0,0,0,0,0,0,0,2.4117,2.4115,2.4134,2.4116,2.4114,2.4129,2.4129,2.4128,2.4094,2.4092,2.4091,2.409,2.4085,2.4086,2.4087,2.4119,0,0,2.409,2.4091,0,0,0,0,0,0,0,0,2.4117,2.4118,2.4118,2.4117,2.4115,2.411,2.412,2.4125,2.4094,2.4101,2.4091,2.4089,2.4095,2.4095,2.4097,2.4119,2.4119,2.409,2.4091,2.4091,2.4092,0,0,0,0,0,0,0,2.4117,2.4118,2.4132,2.4118,2.4116,2.4108,2.4107,2.4121,2.4105,2.4101,2.4098,2.4098,2.4094,2.4096,2.4096,2.4119,2.409,2.4091,2.4092,2.4092,2.4167,2.4168,0,0,0,0,0,0,2.4119,2.4118,2.4132,2.4132,2.4113,2.4109,2.4108,2.4113,2.4105,2.4103,2.4099,2.4096,2.4095,2.4095,2.4096,2.4133,2.4091,2.4092,2.4093,2.4165,2.4167,2.4169,0,0,0,0,0,0,2.4119,2.4121,2.4132,2.4124,2.4125,2.4111,2.4117,2.4114,2.4116,2.4104,2.4101,2.4104,2.4094,2.4095,2.4114,2.4132,2.4093,2.4094,2.4164,2.4166,2.4168,2.4207,0,0,0,0,0,0,2.4119,2.4121,2.4133,2.4125,2.4126,2.415,2.4118,2.4114,2.4118,2.4114,2.4108,2.4106,2.4093,2.4112,2.4115,2.4133,2.4094,2.4162,2.4165,2.4167,2.4204,2.421,2.4215,0,0,0,0,0,2.4118,2.4144,2.4133,2.4135,2.414,2.4151,2.4151,2.4136,2.4119,2.4131,2.4124,2.4106,2.413,2.4115,2.4117,2.4136,2.4161,2.4164,2.4167,2.4201,2.4209,2.4215,0,0,0,0,0,0,2.4154,2.4142,2.4131,2.4155,2.4154,2.4145,2.4159,2.4144,2.4148,2.4145,2.4126,2.4125,2.4147,2.4143,2.4126,2.4166,2.4142,2.4146,2.4168,2.4175,2.418,2.418,2.4095,0,0,0,0,0,2.4165,2.4175,2.4164,2.4186,2.4187,2.4173,2.4177,2.4166,2.4164,2.4164,2.4157,2.4157,2.4164,2.4169,2.4175,2.4203,2.4201,2.4217,2.4223,2.4228,2.4231,2.4245,2.4252,2.4179,2.4179,2.4179,0,0,2.4188,2.4183,2.419,2.4194,2.4192,2.4202,2.4173,2.4185,2.4193,2.4165,2.4183,2.4178,2.4176,2.42,2.421,2.4198,2.4251,2.4232,2.4236,2.4236,2.4249,2.4256,2.4263,2.4181,2.418,2.418,0,0,2.4234,2.4231,2.4249,2.4248,2.4245,2.4236,2.4241,2.4234,2.423,2.4247,2.4227,2.4236,2.4249,2.4248,2.425,2.4296,2.428,2.4299,2.4329,2.4343,2.4349,2.4354,2.437,2.4376,2.4302,2.4303,2.4303,0,2.4262,2.4277,2.426,2.4274,2.4276,2.4252,2.4271,2.427,2.427,2.4272,2.4259,2.4275,2.4272,2.4295,2.4306,2.4308,2.4313,2.4299,2.4349,2.4354,2.4358,2.4374,2.438,2.4305,2.4305,2.4304,2.4304,0,2.4311,2.4322,2.4337,2.4337,2.4342,2.4358,2.4344,2.435,2.4339,2.4331,2.4349,2.4345,2.435,2.4354,2.4343,2.4376,2.4368,2.4352,2.4328,2.4368,2.4382,2.4388,2.4308,2.4307,2.4307,2.4306,0,0,2.4379,2.4371,2.4376,2.4376,2.4372,2.438,2.4395,2.44,2.4406,2.4407,2.4419,2.4431,2.4416,2.4418,2.4406,2.4419,2.4456,2.4401,2.4401,2.4411,2.4491,2.4503,2.451,2.4446,2.4447,2.4448,2.4491,0,2.4423,2.4448,2.4434,2.4461,2.4471,2.4448,2.4462,2.4461,2.4454,2.4462,2.4455,2.4463,2.4443,2.4444,2.4456,2.4449,2.4472,2.4446,2.4456,2.4457,2.4457,2.4517,2.4529,2.457,2.4497,2.4498,2.4498,0,2.4477,2.448,2.4508,2.4502,2.4506,2.4518,2.4521,2.4528,2.4527,2.4522,2.4524,2.451,2.4524,2.4501,2.4521,2.4504,2.4507,2.4505,2.4506,2.4505,2.4479,2.4518,2.4583,2.4589,2.4507,2.4506,2.4505,0,2.4523,2.4534,2.4552,2.4553,2.4547,2.4556,2.4554,2.4551,2.4555,2.4558,2.456,2.4565,2.4568,2.4572,2.456,2.4544,2.4581,2.4557,2.4577,2.4577,2.4585,2.4584,2.4651,2.4589,2.4589,2.4589,2.4589,0,2.4573,2.459,2.4573,2.4584,2.4603,2.4588,2.4607,2.4603,2.4601,2.4611,2.4592,2.4602,2.4585,2.4594,2.4584,2.4602,2.4604,2.4599,2.4596,2.46,2.4601,2.4602,2.4598,2.459,2.459,2.459,2.4589,0,2.4627,2.4616,2.4634,2.4627,2.4625,2.464,2.4634,2.4644,2.4637,2.4649,2.4652,2.464,2.4649,2.4637,2.4645,2.4639,2.4663,2.4656,2.4663,2.4661,2.4681,2.4679,2.475,2.4758,2.4692,2.4693,2.4693,0,2.4659,2.4672,2.4666,2.4671,2.467,2.4679,2.4683,2.4668,2.4673,2.4673,2.4683,2.469,2.4695,2.471,2.4702,2.4708,2.4701,2.4726,2.4702,2.4705,2.47,2.4699,2.47,2.473,2.4731,2.4732,2.4732,0,2.4717,2.4711,2.4717,2.4721,2.4726,2.4729,2.473,2.4736,2.4721,2.4727,2.4736,2.4739,2.4747,2.4755,2.4759,2.4756,2.4742,2.474,2.4745,2.4748,2.4752,2.4749,2.4675,2.4738,2.4738,2.4737,2.4737,2.4737,2.476,2.477,2.4768,2.4776,2.4775,2.4777,2.4786,2.478,2.4787,2.4792,2.4783,2.4794,2.4793,2.4797,2.4796,2.4805,2.4794,2.4801,2.4803,2.4805,2.4807,2.4751,2.4806,2.4805,2.4805,2.4805,2.4805,0,2.4816,2.4814,2.4821,2.4823,2.4829,2.4815,2.4816,2.4822,2.4832,2.4832,2.4837,2.4847,2.4854,2.4848,2.4854,2.4862,2.4855,2.4864,2.4862,2.4862,2.4817,2.4812,2.4869,2.4869,2.4869,2.4869,2.4869,2.4869,2.4846,2.4863,2.4857,2.4874,2.4871,2.4881,2.4883,2.4885,2.4885,2.4897,2.4902,2.4898,2.4896,2.4901,2.4907,2.4905,2.4908,2.4919,2.4914,2.4872,2.4865,2.4859,2.4854,2.492,2.492,2.4958,2.4959,2.4959]},{"header":{"parameterUnit":"m.s-1","parameterCategory":1,"la1":30.2991,"la2":30.254,"lo1":-89.0895,"lo2":-89.0444,"dy":0.0017,"dx":0.0017,"nx":28,"ny":28,"refTime":"2024-07-20T09:00:00:Z","depth":0,"parameterNumber":3,"parameterNumberName":"V-component_of_WINDS"},"data":[0,0,0,0,0,0,0,0,0,0,0,0,0,0,0,0,0,0,0,0,0,0,0,0,0,0,0,0,0,0,0,0,0,0,0,0,0,0,0,0,0,0,0,0,0,0,0,0,0,0,0,0,0,0,0,0,0,0,1.067,1.067,0,1.0636,1.0635,1.0635,1.0658,1.0659,1.066,1.0661,1.062,1.0618,1.0615,0,0,0,0,0,0,0,0,0,0,0,0,0,1.0751,1.0749,1.067,1.067,1.0669,1.0636,1.0635,1.0635,1.0658,1.0659,1.066,1.0661,1.062,1.0618,1.0615,0,0,0,0,0,0,0,0,0,0,0,0,0,1.0716,1.0749,1.067,1.0677,1.0677,1.0636,1.0635,1.0635,1.0657,1.0659,1.0661,1.0662,1.0621,1.0618,1.0615,1.0563,0,0,1.0605,1.0604,0,0,0,0,0,0,0,0,1.0718,1.0713,1.0676,1.0676,1.0677,1.0653,1.0649,1.061,1.0657,1.0665,1.0661,1.0663,1.0629,1.0625,1.0615,1.0561,1.056,1.0605,1.0603,1.0602,1.0601,0,0,0,0,0,0,0,1.072,1.0714,1.0656,1.0676,1.0676,1.068,1.0677,1.0641,1.0638,1.0664,1.0666,1.0662,1.0629,1.0618,1.0614,1.0559,1.0605,1.0602,1.06,1.0599,1.0461,1.0459,0,0,0,0,0,0,1.0723,1.0716,1.0657,1.0655,1.0702,1.0677,1.0674,1.0659,1.0639,1.0637,1.066,1.0663,1.0623,1.0618,1.0613,1.0551,1.0602,1.0599,1.0597,1.0463,1.0461,1.0459,0,0,0,0,0,0,1.0724,1.0717,1.0659,1.0686,1.0679,1.0674,1.0657,1.0657,1.0646,1.0636,1.0635,1.065,1.0624,1.0617,1.0576,1.055,1.0597,1.0595,1.0465,1.0462,1.046,1.0426,0,0,0,0,0,0,1.0727,1.0718,1.0699,1.0686,1.0678,1.0624,1.0656,1.0655,1.0641,1.0644,1.0626,1.0624,1.0624,1.058,1.0573,1.0546,1.0592,1.0467,1.0464,1.046,1.0429,1.0423,1.0417,0,0,0,0,0,1.0729,1.069,1.0698,1.0691,1.0655,1.0622,1.0617,1.0621,1.0639,1.0619,1.0613,1.0624,1.0554,1.0576,1.0567,1.0539,1.0469,1.0465,1.0461,1.0432,1.0424,1.0417,0,0,0,0,0,0,1.0698,1.0688,1.0697,1.0652,1.0638,1.0626,1.0602,1.0612,1.059,1.0593,1.0597,1.0592,1.0549,1.054,1.0565,1.0488,1.0514,1.0508,1.0495,1.0487,1.0481,1.0483,1.0589,0,0,0,0,0,1.0686,1.0663,1.0655,1.0616,1.0608,1.0606,1.0592,1.0596,1.0581,1.0574,1.0565,1.0548,1.0522,1.0504,1.048,1.0429,1.0424,1.0406,1.0399,1.0394,1.0388,1.036,1.0351,1.0446,1.0446,1.0446,0,0,1.066,1.0652,1.0637,1.0609,1.0599,1.0572,1.0601,1.0572,1.0552,1.0569,1.053,1.0522,1.0503,1.0457,1.0436,1.0448,1.0362,1.0389,1.0385,1.0382,1.0355,1.0346,1.0338,1.0443,1.0443,1.0444,0,0,1.06,1.0593,1.0559,1.0549,1.0534,1.0533,1.0525,1.0512,1.0508,1.0469,1.0482,1.0457,1.0413,1.0399,1.0386,1.0322,1.0331,1.0314,1.028,1.0252,1.0245,1.0238,1.0214,1.0206,1.0309,1.0309,1.0309,0,1.057,1.0533,1.054,1.0511,1.0498,1.0515,1.0481,1.0469,1.0446,1.0436,1.0451,1.0396,1.0384,1.0334,1.0319,1.0309,1.0298,1.0315,1.0246,1.0239,1.0233,1.021,1.0201,1.0307,1.0307,1.0307,1.0307,0,1.0496,1.047,1.0444,1.0424,1.0408,1.0376,1.0377,1.036,1.0366,1.0363,1.0323,1.031,1.0283,1.0272,1.0277,1.0223,1.0231,1.0246,1.0271,1.0222,1.02,1.0192,1.0304,1.0304,1.0305,1.0306,0,0,1.0412,1.0398,1.0389,1.038,1.0365,1.0344,1.0312,1.0288,1.0273,1.0257,1.0229,1.0192,1.0206,1.0191,1.0194,1.0171,1.012,1.0188,1.0188,1.0175,1.0058,1.0046,1.0036,1.0127,1.0125,1.0124,1.0059,0,1.0351,1.0298,1.0304,1.0253,1.0228,1.0245,1.0218,1.0205,1.0201,1.0179,1.0174,1.0148,1.0169,1.016,1.0137,1.0131,1.0096,1.0136,1.0099,1.0098,1.0102,1.0025,1.0012,0.9951,1.0051,1.005,1.0049,0,1.0271,1.0254,1.0201,1.0191,1.018,1.0156,1.0134,1.0113,1.0099,1.0098,1.0082,1.009,1.0057,1.0085,1.0038,1.0065,1.0051,1.0045,1.0043,1.0038,1.0069,1.0016,0.9932,0.9923,1.0036,1.0037,1.0038,0,1.0214,1.0178,1.0142,1.0134,1.0121,1.0103,1.0096,1.0083,1.0069,1.005,1.004,1.0017,1.0003,0.9984,0.9985,1.0006,0.9937,0.9965,0.9934,0.9933,0.9916,0.9917,0.9827,0.991,0.991,0.9911,0.9911,0,1.0143,1.011,1.0116,1.0093,1.0056,1.0064,1.0026,1.0021,1.001,0.9985,0.9998,0.9974,0.9978,0.9953,0.9953,0.9914,0.9908,0.9905,0.9905,0.9903,0.9903,0.9892,0.9895,0.9908,0.9909,0.9909,0.991,0,1.0072,1.0076,1.0037,1.0029,1.0026,0.9999,0.9991,0.9969,0.9968,0.9936,0.9929,0.9926,0.9899,0.9898,0.9865,0.9866,0.9817,0.9823,0.9822,0.9823,0.9791,0.9793,0.9689,0.9675,0.9769,0.9768,0.9767,0,1.0026,1.0001,0.9991,0.9977,0.997,0.9946,0.9932,0.9939,0.9923,0.9905,0.9885,0.9859,0.9838,0.9792,0.9786,0.9761,0.9765,0.9731,0.9761,0.976,0.9763,0.9763,0.976,0.9724,0.9723,0.9722,0.9721,0,0.9943,0.9947,0.9927,0.9908,0.9891,0.9876,0.9862,0.9849,0.9854,0.9835,0.9808,0.9792,0.976,0.9733,0.971,0.9701,0.9711,0.9712,0.9703,0.9699,0.97,0.9698,0.9804,0.9714,0.9714,0.9715,0.9715,0.9716,0.9882,0.9861,0.9851,0.9828,0.9819,0.9806,0.9785,0.9782,0.976,0.9736,0.9741,0.9711,0.9696,0.9666,0.9655,0.963,0.9642,0.9629,0.9625,0.9622,0.9618,0.9706,0.9626,0.9626,0.9626,0.9626,0.9627,0,0.9799,0.9794,0.9774,0.9755,0.9737,0.9751,0.9736,0.972,0.9693,0.968,0.9661,0.9629,0.9604,0.9596,0.9571,0.9552,0.9556,0.9545,0.9546,0.9543,0.9609,0.9619,0.9543,0.9543,0.9543,0.9543,0.9543,0.9543,0.9753,0.9718,0.972,0.9679,0.9674,0.9646,0.9636,0.9623,0.9613,0.9578,0.9558,0.9555,0.9543,0.9518,0.9495,0.9493,0.9482,0.9469,0.9469,0.953,0.9539,0.9547,0.9556,0.9467,0.9467,0.9405,0.9404,0.9404]}]]